Date String (YYYY-MM-DD hh:mm:ss) UTC,Instrument flags,Ambient pressure (hPa),Sample flow (lpm),Bypass flow (lpm),Sample temperature (°C),Ambient temperature (°C),ASC tube jacket temperature (°C),LED temperature (°C),Box temperature (°C),Sample RH (%),Span deviation,Mass concentration (μg/m³),Mass concentration (μg/m³),Mass concentration (μg/m³)
DateTimeUTC,F1_M11,P_M11,Q1_M11,Q2_M11,T1_M11,T2_M11,T3_M11,T4_M11,T5_M11,U1_M11,ZSPAN_M11,X0_M11,X2_M11,X1_M11
2022-06-27 06:00:00,,0835.2,5.00,0.00,30.2,29.1,00.0,39.1,32.0,23.9,0000.0,0009.99,0004.32,0003.82
2022-06-27 06:01:00,,0835.1,5.00,0.00,30.2,29.1,00.0,39.1,32.0,23.9,0000.0,0010.15,0004.32,0003.82
2022-06-27 06:02:00,,0835.2,4.99,0.00,30.2,29.1,00.0,39.1,32.0,23.9,0000.0,0009.93,0004.31,0003.82
2022-06-27 06:03:00,,0835.1,5.01,0.00,30.2,29.1,00.0,39.1,32.0,23.9,0000.0,0009.61,0004.33,0003.80
2022-06-27 06:04:00,,0835.2,5.00,0.00,30.2,29.1,00.0,39.1,32.0,23.8,0000.0,0009.54,0004.32,0003.81
2022-06-27 06:05:00,,0835.2,5.01,0.00,30.2,29.1,00.0,39.1,32.0,23.8,0000.0,0009.21,0004.31,0003.81
2022-06-27 06:06:00,,0835.1,5.00,0.00,30.2,29.1,00.0,39.1,32.0,23.9,0000.0,0008.61,0004.29,0003.79
2022-06-27 06:07:00,,0835.2,5.01,0.00,30.2,29.1,00.0,39.1,32.0,23.8,0000.0,0008.26,0004.33,0003.79
2022-06-27 06:08:00,,0835.1,5.00,0.00,30.2,29.1,00.0,39.1,32.0,23.8,0000.0,0008.19,0004.36,0003.78
2022-06-27 06:09:00,,0835.1,4.99,0.00,30.2,29.1,00.0,39.1,32.0,23.8,0000.0,0008.31,0004.35,0003.77
2022-06-27 06:10:00,,0835.1,5.00,0.00,30.2,29.1,00.0,39.1,32.0,23.8,0000.0,0008.74,0004.36,0003.76
2022-06-27 06:11:00,,0835.2,5.00,0.00,30.2,29.1,00.0,39.1,32.0,23.8,0000.0,0009.23,0004.34,0003.75
2022-06-27 06:12:00,,0835.2,4.98,0.00,30.2,29.1,00.0,39.1,32.0,23.8,0000.0,0009.30,0004.31,0003.74
2022-06-27 06:13:00,,0835.2,5.00,0.00,30.2,29.1,00.0,39.1,32.0,23.8,0000.0,0009.52,0004.31,0003.73
2022-06-27 06:14:00,,0835.2,5.00,0.00,30.2,29.1,00.0,39.1,32.0,23.8,0000.0,0010.02,0004.29,0003.73
2022-06-27 06:15:00,,0835.2,5.00,0.00,30.2,29.1,00.0,39.1,32.0,23.8,0000.0,0010.16,0004.31,0003.72
2022-06-27 06:16:00,,0835.2,5.01,0.00,30.2,29.1,00.0,39.1,32.0,23.8,0000.0,0010.36,0004.35,0003.72
2022-06-27 06:17:00,,0835.2,5.00,0.00,30.2,29.1,00.0,39.1,32.0,23.8,0000.0,0010.65,0004.35,0003.73
2022-06-27 06:18:00,,0835.2,4.99,0.00,30.2,29.1,00.0,39.1,32.0,23.7,0000.0,0011.11,0004.32,0003.72
2022-06-27 06:19:00,,0835.2,5.00,0.00,30.2,29.1,00.0,39.1,32.1,23.8,0000.0,0011.47,0004.30,0003.73
2022-06-27 06:20:00,,0835.2,5.01,0.00,30.2,29.2,00.0,39.1,32.1,23.8,0000.0,0011.38,0004.31,0003.73
2022-06-27 06:21:00,,0835.2,5.00,0.00,30.2,29.2,00.0,39.1,32.1,23.7,0000.0,0010.84,0004.30,0003.73
2022-06-27 06:22:00,,0835.2,5.01,0.00,30.2,29.2,00.0,39.1,32.1,23.7,0000.0,0010.75,0004.30,0003.74
2022-06-27 06:23:00,,0835.2,5.00,0.00,30.2,29.2,00.0,39.1,32.1,23.7,0000.0,0011.22,0004.30,0003.75
2022-06-27 06:24:00,,0835.2,4.99,0.00,30.2,29.2,00.0,39.1,32.1,23.8,0000.0,0011.23,0004.30,0003.76
2022-06-27 06:25:00,,0835.2,5.00,0.00,30.2,29.2,00.0,39.1,32.1,23.8,0000.0,0010.70,0004.30,0003.76
2022-06-27 06:26:00,,0835.2,5.01,0.00,30.2,29.2,00.0,39.1,32.1,23.8,0000.0,0010.51,0004.27,0003.76
2022-06-27 06:27:00,,0835.2,4.99,0.00,30.2,29.2,00.0,39.1,32.1,23.7,0000.0,0010.98,0004.27,0003.76
2022-06-27 06:28:00,,0835.2,5.00,0.00,30.3,29.2,00.0,39.1,32.1,23.7,0000.0,0011.12,0004.26,0003.76
2022-06-27 06:29:00,,0835.2,5.00,0.00,30.2,29.2,00.0,39.1,32.1,23.7,0000.0,0010.98,0004.23,0003.75
2022-06-27 06:30:00,,0835.3,5.00,0.00,30.3,29.2,00.0,39.1,32.1,23.7,0000.0,0010.33,0004.23,0003.74
2022-06-27 06:31:00,,0835.3,5.00,0.00,30.3,29.2,00.0,39.1,32.1,23.7,0000.0,0010.31,0004.22,0003.74
2022-06-27 06:32:00,,0835.3,5.01,0.00,30.3,29.2,00.0,39.1,32.1,23.7,0000.0,0010.40,0004.22,0003.74
2022-06-27 06:33:00,,0835.3,4.99,0.00,30.3,29.2,00.0,39.1,32.1,23.7,0000.0,0010.14,0004.24,0003.72
2022-06-27 06:34:00,,0835.3,5.00,0.00,30.3,29.2,00.0,39.1,32.1,23.7,0000.0,0009.44,0004.23,0003.71
2022-06-27 06:35:00,,0835.3,5.00,0.00,30.3,29.2,00.0,39.1,32.1,23.6,0000.0,0008.88,0004.21,0003.69
2022-06-27 06:36:00,,0835.3,5.00,0.00,30.3,29.2,00.0,39.1,32.1,23.6,0000.0,0009.03,0004.22,0003.69
2022-06-27 06:37:00,,0835.4,5.01,0.00,30.3,29.2,00.0,39.1,32.1,23.6,0000.0,0009.52,0004.22,0003.68
2022-06-27 06:38:00,,0835.4,4.99,0.00,30.3,29.2,00.0,39.1,32.1,23.6,0000.0,0009.15,0004.20,0003.67
2022-06-27 06:39:00,,0835.4,5.00,0.00,30.3,29.2,00.0,39.1,32.1,23.6,0000.0,0008.68,0004.20,0003.67
2022-06-27 06:40:00,,0835.3,5.00,0.00,30.3,29.2,00.0,39.1,32.1,23.6,0000.0,0008.40,0004.23,0003.67
2022-06-27 06:41:00,,0835.3,4.99,0.00,30.3,29.2,00.0,39.1,32.1,23.5,0000.0,0008.47,0004.23,0003.66
2022-06-27 06:42:00,,0835.3,5.01,0.00,30.3,29.2,00.0,39.1,32.1,23.5,0000.0,0008.84,0004.23,0003.66
2022-06-27 06:43:00,,0835.3,5.00,0.00,30.3,29.2,00.0,39.1,32.1,23.6,0000.0,0008.78,0004.20,0003.64
2022-06-27 06:44:00,,0835.4,5.00,0.00,30.3,29.2,00.0,39.1,32.1,23.6,0000.0,0008.66,0004.16,0003.63
2022-06-27 06:45:00,,0835.3,4.99,0.00,30.3,29.2,00.0,39.1,32.1,23.7,0000.0,0008.66,0004.17,0003.62
2022-06-27 06:46:00,,0835.3,5.01,0.00,30.3,29.2,00.0,39.1,32.1,23.7,0000.0,0008.63,0004.17,0003.61
2022-06-27 06:47:00,,0835.3,5.00,0.00,30.3,29.2,00.0,39.1,32.1,23.7,0000.0,0009.15,0004.17,0003.60
2022-06-27 06:48:00,,0835.3,4.99,0.00,30.3,29.2,00.0,39.1,32.1,23.7,0000.0,0008.89,0004.18,0003.60
2022-06-27 06:49:00,,0835.3,5.01,0.00,30.3,29.2,00.0,39.1,32.1,23.7,0000.0,0009.08,0004.16,0003.59
2022-06-27 06:50:00,,0835.3,4.99,0.00,30.3,29.2,00.0,39.1,32.1,23.7,0000.0,0009.45,0004.17,0003.58
2022-06-27 06:51:00,,0835.3,5.00,0.00,30.3,29.2,00.0,39.1,32.1,23.7,0000.0,0009.58,0004.18,0003.58
2022-06-27 06:52:00,,0835.2,5.01,0.00,30.3,29.2,00.0,39.1,32.1,23.6,0000.0,0009.67,0004.18,0003.59
2022-06-27 06:53:00,,0835.2,5.00,0.00,30.3,29.2,00.0,39.1,32.1,23.6,0000.0,0009.83,0004.20,0003.61
2022-06-27 06:54:00,,0835.2,5.00,0.00,30.3,29.2,00.0,39.1,32.1,23.6,0000.0,0010.85,0004.21,0003.63
2022-06-27 06:55:00,,0835.2,4.99,0.00,30.3,29.2,00.0,39.1,32.1,23.7,0000.0,0011.20,0004.25,0003.66
2022-06-27 06:56:00,,0835.2,5.01,0.00,30.3,29.2,00.0,39.1,32.1,23.7,0000.0,0011.33,0004.31,0003.70
2022-06-27 06:57:00,,0835.2,5.01,0.00,30.3,29.2,00.0,39.1,32.1,23.7,0000.0,0011.39,0004.34,0003.73
2022-06-27 06:58:00,,0835.1,5.00,0.00,30.3,29.2,00.0,39.1,32.1,23.7,0000.0,0011.14,0004.38,0003.76
2022-06-27 06:59:00,,0835.2,5.00,0.00,30.3,29.2,00.0,39.1,32.1,23.8,0000.0,0011.00,0004.46,0003.79
